Regional Weather Roundup
Issued by NWS

Home | Current Version | Previous Version | Text Only | Print | Product List | Glossary Off
Versions: 1 2 3 4 5 6 7 8 9 10 11 12 13 14 15 16 17 18 19 20 21 22 23 24 25 26 27 28 29 30 31 32 33 34 35 36 37 38 39 40 41 42 43 44 45 46 47 48 49 50

000
ASUS43 KIND 230459
RWRIN

WEATHER ROUNDUP FOR INDIANA
NATIONAL WEATHER SERVICE INDIANAPOLIS IN
100 AM EDT MON APR 23 2018

NOTE: "FAIR" INDICATES FEW OR NO CLOUDS BELOW 12,000 FEET WITH NO
SIGNIFICANT WEATHER AND/OR OBSTRUCTIONS TO VISIBILITY.

* - STATION DOES NOT REPORT WEATHER SUCH AS PRECIPITATION OR FOG.

+ - STATION NOT QUALITY CONTROLLED BY THE NATIONAL WEATHER SERVICE.
    USE DATA WITH CAUTION...ESPECIALLY DEWPOINT AND RELATIVE
    HUMIDITY OBSERVATIONS.

INZ001>003-010>013-019-020-230600-
NORTHWEST INDIANA

CITY           SKY/WX    TMP DP  RH WIND       PRES   REMARKS
KNOX *+        FAIR      46  21  36 E9        30.23S
MONTICELLO +   FAIR      50  22  33 E9        30.20S

$$

LMZ046-743>745-230600-
SOUTHERN LAKE MICHIGAN

STATION/POSITION TIME  TEMP    WIND        PRES    WAVE
                       AIR SEA DIR/SP/G            HT
                 (UTC) (F)     (DEG/KT/KT) (MB)    (FT)
BURNS HARBOR     0440   42      80/  8/ 10 1024.4S
MICHIGAN CITY    0430   46      70/  7/  8   N/A

$$

INZ004-005-014>016-021>024-230600-
NORTH CENTRAL INDIANA

CITY           SKY/WX    TMP DP  RH WIND       PRES   REMARKS
GOSHEN         FAIR      42  25  50 E7        30.25S
ROCHESTER +    FAIR      50  23  34 E8        30.23S
SOUTH BEND     FAIR      48  19  31 E9        30.26S
WARSAW +       FAIR      45  23  42 E10       30.24S

$$

INZ006>009-017-018-025>027-230600-
NORTHEAST INDIANA

CITY           SKY/WX    TMP DP  RH WIND       PRES   REMARKS
FORT WAYNE     MOCLDY    45  25  45 E12       30.24S

$$

INZ028-029-035-036-043>045-051>053-230600-
WEST CENTRAL INDIANA

CITY           SKY/WX    TMP DP  RH WIND       PRES   REMARKS
LAFAYETTE      FAIR      49  28  44 NE16      30.18S
TERRE HAUTE    CLOUDY    58  34  40 E13       30.10S

$$

INZ030>032-037>040-046>048-054>057-064-065-230600-
CENTRAL INDIANA

CITY           SKY/WX    TMP DP  RH WIND       PRES   REMARKS
GREENWOOD *+   FAIR      51  34  52 NE9       30.14S
INDIANAPOLIS   MOCLDY    54  32  43 NE14      30.13F
-EAGLE CREEK   FAIR      52  31  44 NE9       30.14F
KOKOMO +       FAIR      46  26  45 NE13      30.20F
MT COMFORT *+  FAIR      48  37  66 NE7       30.15F
SHELBYVILLE    FAIR      53  35  50 NE15      30.12F
ZIONSVILLE +   FAIR      48  29  47 NE14G20   30.16F

$$

INZ033-034-041-042-049-050-058-059-230600-
EAST CENTRAL INDIANA

CITY           SKY/WX    TMP DP  RH WIND       PRES   REMARKS
MUNCIE         FAIR      49  27  42 E10       30.18F
RICHMOND +     FAIR      46  32  57 NE13      30.16F

$$

INZ060-061-067>069-081>083-085>088-230600-
SOUTHWEST INDIANA

CITY           SKY/WX    TMP DP  RH WIND       PRES   REMARKS
EVANSVILLE     LGT RAIN  56  46  69 NE9       30.02F
HUNTINGBURG +  CLOUDY    62  33  33 E9G17     30.03F

$$

INZ062-063-066-070>080-084-089>092-230600-
SOUTH CENTRAL AND SOUTHEAST INDIANA

CITY           SKY/WX    TMP DP  RH WIND       PRES   REMARKS
BLOOMINGTON    CLOUDY    61  29  29 E14       30.09F
SEYMOUR +      CLOUDY    61  32  33 E13       30.08F

$$




USA.gov is the U.S. government's official web portal to all federal, state and local government web resources and services.